GW1795 Weather Reports


Display with metric or nautical units.
time (UTC)temp
F
wind
direction
speed
MPH
gust
MPH
rain 1hr
in
rain 24hr
in
rain mn
in
humidity
%
barometer
mb
20260508025954 46 116 2.0 2.0 0.00 0.00 0.00 74 1010.8
20260508025450 46 120 3.0 4.0 0.00 0.00 0.00 73 1010.7
20260508024948 46 136 3.0 4.0 0.00 0.00 0.00 72 1010.8
20260508024443 46 127 2.0 3.0 0.00 0.00 0.00 72 1010.8
20260508023941 46 119 3.0 3.0 0.00 0.00 0.00 72 1010.6
20260508023437 46 124 3.0 3.0 0.00 0.00 0.00 73 1010.7
20260508022935 46 115 3.0 3.0 0.00 0.00 0.00 74 1010.7
20260508022430 46 130 3.0 4.0 0.00 0.00 0.00 72 1010.6
20260508021927 47 129 3.0 4.0 0.00 0.00 0.00 70 1010.7
20260508021423 47 121 3.0 3.0 0.00 0.00 0.00 69 1010.5
20260508020919 48 122 2.0 3.0 0.00 0.00 0.00 68 1010.7
20260508020418 48 129 4.0 4.0 0.00 0.00 0.00 70 1010.6
20260508015914 47 122 3.0 4.0 0.00 0.00 0.00 74 1010.8
20260508015412 47 127 3.0 3.0 0.00 0.00 0.00 74 1010.8
20260508014908 47 126 3.0 4.0 0.00 0.00 0.00 74 1010.7
20260508014406 47 126 3.0 4.0 0.00 0.00 0.00 73 1010.7
20260508013902 47 125 3.0 3.0 0.00 0.00 0.00 71 1010.6
20260508013357 47 124 3.0 3.0 0.00 0.00 0.00 70 1010.5
20260508012855 47 138 3.0 3.0 0.00 0.00 0.00 67 1010.6
20260508012352 48 135 3.0 3.0 0.00 0.00 0.00 65 1010.5
20260508011849 48 118 2.0 3.0 0.00 0.00 0.00 62 1010.5
20260508011347 48 136 3.0 4.0 0.00 0.00 0.00 60 1010.4
20260508010844 49 127 2.0 3.0 0.00 0.00 0.00 58 1010.5
20260508010341 50 130 2.0 3.0 0.00 0.00 0.00 56 1010.5
20260508005839 50 129 2.0 3.0 0.00 0.00 0.00 57 1010.6
20260508005335 50 125 2.0 3.0 0.00 0.00 0.00 55 1010.5
20260508004831 51 115 2.0 3.0 0.00 0.00 0.00 54 1010.5
20260508004328 51 127 3.0 3.0 0.00 0.00 0.00 52 1010.4
20260508003824 51 133 2.0 3.0 0.00 0.00 0.00 51 1010.4
20260508003322 51 124 2.0 3.0 0.00 0.00 0.00 49 1010.5
20260508002819 52 137 2.0 3.0 0.00 0.00 0.00 47 1010.2
20260508002315 53 131 2.0 3.0 0.00 0.00 0.00 47 1010.2
20260508001811 53 122 2.0 3.0 0.00 0.00 0.00 44 1010.2
20260508001307 54 112 2.0 2.0 0.00 0.00 0.00 42 1010.1
20260508000803 54 106 2.0 2.0 0.00 0.00 0.00 42 1010.1
20260508000300 55 143 1.0 2.0 0.00 0.00 0.00 40 1010.0
20260507235757 55 130 0.0 2.0 0.00 0.00 0.00 40 1010.1
20260507235254 55 120 1.0 2.0 0.00 0.00 0.00 41 1010.0
20260507234751 55 70 1.0 3.0 0.00 0.00 0.00 40 1010.0
20260507234248 56 149 1.0 3.0 0.00 0.00 0.00 40 1009.9
20260507233744 57 177 1.0 2.0 0.00 0.00 0.00 37 1009.9
20260507233242 58 193 2.0 4.0 0.00 0.00 0.00 38 1009.9
20260507232739 58 120 2.0 4.0 0.00 0.00 0.00 37 1009.7
20260507232236 59 5 2.0 5.0 0.00 0.00 0.00 35 1010.0
20260507231733 58 144 0.0 3.0 0.00 0.00 0.00 36 1010.0
20260507231230 58 246 1.0 5.0 0.00 0.00 0.00 35 1010.0
20260507230726 59 330 3.0 7.0 0.00 0.00 0.00 35 1009.9
20260507230224 59 211 2.0 6.0 0.00 0.00 0.00 35 1010.0
20260507225723 59 23 0.0 4.0 0.00 0.00 0.00 34 1010.0
20260507225220 59 230 2.0 5.0 0.00 0.00 0.00 35 1010.0
20260507224715 59 341 2.0 4.0 0.00 0.00 0.00 36 1010.2
20260507224212 59 27 0.0 4.0 0.00 0.00 0.00 35 1010.1
20260507223708 58 323 2.0 5.0 0.00 0.00 0.00 36 1010.1
20260507223206 59 340 7.0 7.0 0.00 0.00 0.00 35 1010.1
20260507222702 60 291 3.0 8.0 0.00 0.00 0.00 34 1010.3
20260507222159 58 171 3.0 4.0 0.00 0.00 0.00 38 1010.3
20260507221655 58 50 3.0 4.0 0.00 0.00 0.00 38 1010.2
20260507221151 58 330 2.0 4.0 0.00 0.00 0.00 37 1010.3
20260507220649 58 199 2.0 6.0 0.00 0.00 0.00 37 1010.4
20260507220147 59 333 4.0 5.0 0.00 0.00 0.00 35 1010.3
20260507215642 59 356 8.0 12.0 0.00 0.00 0.00 34 1010.3
20260507215140 59 356 6.0 6.0 0.00 0.00 0.00 34 1010.3
20260507214637 60 13 4.0 9.0 0.00 0.00 0.00 34 1010.2
20260507214134 60 336 2.0 6.0 0.00 0.00 0.00 35 1010.1
20260507213630 60 30 2.0 8.0 0.00 0.00 0.00 35 1010.1
20260507213127 59 44 3.0 4.0 0.00 0.00 0.00 38 1010.0
20260507212623 58 3 3.0 11.0 0.00 0.00 0.00 36 1010.1
20260507212120 58 353 0.0 5.0 0.00 0.00 0.00 38 1010.0
20260507211617 58 64 1.0 5.0 0.00 0.00 0.00 36 1009.8
20260507211112 59 358 3.0 6.0 0.00 0.00 0.00 36 1009.9
20260507210610 59 127 3.0 7.0 0.00 0.00 0.00 37 1009.9
20260507210107 59 344 7.0 9.0 0.00 0.00 0.00 35 1009.8
20260507205603 59 330 7.0 8.0 0.00 0.00 0.00 34 1010.0
20260507205100 58 124 2.0 4.0 0.00 0.00 0.00 38 1009.9
20260507204556 59 332 4.0 5.0 0.00 0.00 0.00 38 1010.1
20260507204054 59 159 3.0 6.0 0.00 0.00 0.00 39 1010.1
20260507203551 60 248 10.0 12.0 0.00 0.00 0.00 36 1009.9
20260507203049 58 215 3.0 10.0 0.00 0.00 0.00 39 1009.9
20260507202544 58 45 2.0 8.0 0.00 0.00 0.00 41 1009.9
20260507202040 58 72 4.0 9.0 0.00 0.00 0.00 39 1009.9
20260507201536 57 45 2.0 10.0 0.00 0.00 0.00 40 1010.0
20260507201033 58 2 6.0 10.0 0.00 0.00 0.00 38 1010.2
20260507200528 58 343 6.0 8.0 0.00 0.00 0.00 39 1010.2
20260507200025 57 255 2.0 7.0 0.00 0.00 0.00 40 1010.0
20260507195522 56 330 7.0 8.0 0.00 0.00 0.00 39 1010.0
20260507195020 57 321 6.0 7.0 0.00 0.00 0.00 38 1010.2
20260507194516 57 16 4.0 5.0 0.00 0.00 0.00 40 1010.1
20260507194012 58 190 3.0 6.0 0.00 0.00 0.00 43 1010.1
20260507193509 57 342 2.0 10.0 0.00 0.00 0.00 41 1010.3
20260507193006 57 341 3.0 9.0 0.00 0.00 0.00 41 1010.4
20260507192502 58 329 3.0 15.0 0.00 0.00 0.00 41 1010.1
20260507191959 57 0 4.0 10.0 0.00 0.00 0.00 40 1010.2
20260507191454 57 349 7.0 11.0 0.00 0.00 0.00 38 1010.1
20260507190951 56 9 4.0 8.0 0.00 0.00 0.00 41 1010.2
20260507190449 56 331 4.0 9.0 0.00 0.00 0.00 39 1010.1
20260507185948 57 319 4.0 11.0 0.00 0.00 0.00 42 1010.4
20260507185445 57 311 3.0 10.0 0.00 0.00 0.00 39 1010.3
20260507184941 57 356 4.0 11.0 0.00 0.00 0.00 42 1010.2
20260507184439 57 19 3.0 7.0 0.00 0.00 0.00 45 1010.3
20260507183937 56 344 4.0 11.0 0.00 0.00 0.00 45 1010.2
20260507183434 56 0 3.0 9.0 0.00 0.00 0.00 45 1010.4
20260507182931 57 294 2.0 10.0 0.00 0.00 0.00 45 1010.3
20260507182427 57 40 2.0 8.0 0.00 0.00 0.00 47 1010.4
20260507181923 57 66 4.0 12.0 0.00 0.00 0.00 45 1010.3
20260507181419 56 313 2.0 11.0 0.00 0.00 0.00 45 1010.4
20260507180916 56 338 3.0 8.0 0.00 0.00 0.00 45 1010.3
20260507180413 57 235 2.0 6.0 0.00 0.00 0.00 45 1010.3
20260507175908 57 77 2.0 5.0 0.00 0.00 0.00 52 1010.3
20260507175405 56 180 2.0 5.0 0.00 0.00 0.00 45 1010.4
20260507174903 56 11 4.0 10.0 0.00 0.00 0.00 45 1010.4
20260507174400 56 312 4.0 5.0 0.00 0.00 0.00 47 1010.4
20260507173858 56 219 2.0 7.0 0.00 0.00 0.00 47 1010.7
20260507173355 56 332 3.0 15.0 0.00 0.00 0.00 44 1010.5
20260507172851 56 231 5.0 8.0 0.00 0.00 0.00 44 1010.6
20260507172348 56 30 5.0 6.0 0.00 0.00 0.00 42 1010.5
20260507171844 56 231 2.0 9.0 0.00 0.00 0.00 42 1010.7
20260507171340 56 237 3.0 10.0 0.00 0.00 0.00 45 1010.7
20260507170838 55 320 4.0 9.0 0.00 0.00 0.00 45 1010.8
20260507170334 55 11 3.0 9.0 0.00 0.00 0.00 44 1011.1
20260507165830 55 252 3.0 12.0 0.00 0.00 0.00 44 1010.8
20260507165326 55 328 2.0 9.0 0.00 0.00 0.00 43 1010.9
20260507164822 55 232 8.0 11.0 0.00 0.00 0.00 48 1011.0
20260507164320 55 347 2.0 9.0 0.00 0.00 0.00 43 1011.1
20260507163817 55 247 8.0 13.0 0.00 0.00 0.00 45 1011.1
20260507163314 55 258 3.0 7.0 0.00 0.00 0.00 44 1011.1
20260507162810 55 261 6.0 11.0 0.00 0.00 0.00 47 1011.1
20260507162307 54 348 5.0 6.0 0.00 0.00 0.00 45 1011.0
20260507161803 55 246 6.0 6.0 0.00 0.00 0.00 46 1010.9
20260507161300 54 11 5.0 11.0 0.00 0.00 0.00 41 1010.9
20260507160756 54 268 4.0 6.0 0.00 0.00 0.00 41 1010.9
20260507160252 53 341 6.0 9.0 0.00 0.00 0.00 40 1010.9
20260507155748 54 346 7.0 8.0 0.00 0.00 0.00 42 1010.9
20260507155244 54 0 5.0 7.0 0.00 0.00 0.00 41 1011.0
20260507154741 54 192 3.0 11.0 0.00 0.00 0.00 43 1011.0
20260507154239 53 14 3.0 6.0 0.00 0.00 0.00 46 1010.8
20260507153735 53 336 6.0 6.0 0.00 0.00 0.00 44 1010.7
20260507153231 53 0 2.0 7.0 0.00 0.00 0.00 45 1010.8
20260507152728 53 233 9.0 10.0 0.00 0.00 0.00 43 1010.8
20260507152225 53 261 2.0 9.0 0.00 0.00 0.00 44 1010.8
20260507151720 53 187 4.0 9.0 0.00 0.00 0.00 43 1010.8
20260507151217 54 314 2.0 10.0 0.00 0.00 0.00 43 1010.7
20260507150714 53 320 1.0 9.0 0.00 0.00 0.00 46 1010.8
20260507150211 53 9 4.0 6.0 0.00 0.00 0.00 44 1010.8
20260507145707 53 214 3.0 6.0 0.00 0.00 0.00 47 1010.9
20260507145203 53 343 0.0 12.0 0.00 0.00 0.00 46 1010.8
20260507144700 52 345 5.0 5.0 0.00 0.00 0.00 46 1010.7
20260507144159 52 3 2.0 9.0 0.00 0.00 0.00 47 1010.7
20260507143655 52 351 4.0 6.0 0.00 0.00 0.00 46 1010.9
20260507143152 52 278 6.0 6.0 0.00 0.00 0.00 46 1010.8
20260507142647 52 137 3.0 5.0 0.00 0.00 0.00 51 1010.9
20260507142144 52 11 4.0 9.0 0.00 0.00 0.00 45 1010.8
20260507141641 52 96 2.0 7.0 0.00 0.00 0.00 46 1010.9
20260507141138 51 345 5.0 6.0 0.00 0.00 0.00 47 1011.0
20260507140634 51 9 5.0 6.0 0.00 0.00 0.00 48 1011.2
20260507140131 51 336 5.0 6.0 0.00 0.00 0.00 48 1010.9
20260507135628 51 167 3.0 4.0 0.00 0.00 0.00 47 1011.0
20260507135126 51 337 2.0 6.0 0.00 0.00 0.00 49 1011.1
20260507134622 51 50 2.0 7.0 0.00 0.00 0.00 49 1011.4
20260507134118 51 75 1.0 5.0 0.00 0.00 0.00 49 1011.0
20260507133614 51 10 4.0 6.0 0.00 0.00 0.00 48 1011.0
20260507133112 51 204 2.0 8.0 0.00 0.00 0.00 48 1011.3
20260507132609 51 125 2.0 6.0 0.00 0.00 0.00 51 1011.2
20260507132105 50 358 3.0 5.0 0.00 0.00 0.00 52 1011.1
20260507131602 50 139 3.0 5.0 0.00 0.00 0.00 52 1011.1
20260507131100 50 0 3.0 6.0 0.00 0.00 0.00 50 1011.1
20260507130556 50 342 2.0 6.0 0.00 0.00 0.00 52 1011.1
20260507130054 50 234 5.0 6.0 0.00 0.00 0.00 54 1011.2
20260507125553 49 235 3.0 6.0 0.00 0.00 0.00 55 1011.1
20260507125050 49 337 2.0 5.0 0.00 0.00 0.00 55 1011.2
20260507124546 50 288 2.0 6.0 0.00 0.00 0.00 59 1011.2
20260507124044 49 39 2.0 2.0 0.00 0.00 0.00 60 1011.1
20260507123542 48 70 3.0 4.0 0.00 0.00 0.00 62 1011.3
20260507123038 48 80 1.0 5.0 0.00 0.00 0.00 62 1011.2
20260507122533 47 3 2.0 4.0 0.00 0.00 0.00 63 1011.1
20260507122030 47 284 2.0 4.0 0.00 0.00 0.00 65 1011.2
20260507121525 47 105 2.0 3.0 0.00 0.00 0.00 66 1011.2
20260507121021 46 161 2.0 4.0 0.00 0.00 0.00 66 1011.2
20260507120518 46 223 1.0 4.0 0.00 0.00 0.00 67 1011.1
20260507120015 46 99 1.0 5.0 0.00 0.00 0.00 67 1011.0
20260507115511 46 39 0.0 5.0 0.00 0.00 0.00 68 1011.0
20260507115007 45 4 3.0 3.0 0.00 0.00 0.00 69 1011.2
20260507114503 45 345 5.0 6.0 0.00 0.00 0.00 70 1011.2
20260507114000 45 114 2.0 4.0 0.00 0.00 0.00 71 1011.1
20260507113457 44 310 3.0 3.0 0.00 0.00 0.00 73 1011.2
20260507112954 44 106 2.0 4.0 0.00 0.00 0.00 74 1011.1
20260507112452 43 95 2.0 4.0 0.00 0.00 0.00 76 1011.2
20260507111949 42 145 3.0 3.0 0.00 0.00 0.00 77 1011.0
20260507111446 42 181 2.0 3.0 0.00 0.00 0.00 78 1011.0
20260507110942 42 161 2.0 3.0 0.00 0.00 0.00 79 1011.1
20260507110438 41 94 1.0 3.0 0.00 0.00 0.00 81 1010.8
20260507105935 41 165 2.0 3.0 0.00 0.00 0.00 81 1010.9
20260507105432 41 32 0.0 3.0 0.00 0.00 0.00 81 1010.7
20260507104929 41 121 2.0 3.0 0.00 0.00 0.00 82 1010.7
20260507104426 40 142 2.0 3.0 0.00 0.00 0.00 83 1010.8
20260507103927 41 124 3.0 3.0 0.00 0.00 0.00 83 1010.5
20260507103424 41 129 2.0 4.0 0.00 0.00 0.00 82 1010.5
20260507102920 41 168 2.0 3.0 0.00 0.00 0.00 83 1010.8
20260507102417 40 148 2.0 3.0 0.00 0.00 0.00 83 1010.6
20260507101913 40 161 3.0 3.0 0.00 0.00 0.00 83 1010.7
20260507101408 40 148 2.0 3.0 0.00 0.00 0.00 84 1010.4
20260507100905 41 124 2.0 3.0 0.00 0.00 0.00 84 1010.5
20260507100403 41 138 2.0 3.0 0.00 0.00 0.00 84 1010.6
20260507095901 40 139 3.0 3.0 0.00 0.00 0.00 86 1010.4
20260507095357 40 139 2.0 3.0 0.00 0.00 0.00 87 1010.4
20260507094854 40 128 3.0 3.0 0.00 0.00 0.00 88 1010.5
20260507094351 40 130 2.0 3.0 0.00 0.00 0.00 89 1010.3
20260507093848 39 129 3.0 4.0 0.00 0.00 0.00 89 1010.3
20260507093346 39 146 3.0 3.0 0.00 0.00 0.00 90 1010.2
20260507092844 39 158 2.0 3.0 0.00 0.00 0.00 91 1010.1
20260507092340 39 146 3.0 3.0 0.00 0.00 0.00 91 1010.3
20260507091836 39 145 3.0 3.0 0.00 0.00 0.00 92 1010.2
20260507091333 39 137 3.0 3.0 0.00 0.00 0.00 92 1010.3
20260507090829 39 133 3.0 4.0 0.00 0.00 0.00 92 1010.4
20260507090325 39 141 3.0 3.0 0.00 0.00 0.00 92 1010.5
20260507085822 39 134 3.0 3.0 0.00 0.00 0.00 92 1010.3
20260507085319 39 134 3.0 3.0 0.00 0.00 0.00 93 1010.3
20260507084817 39 143 3.0 4.0 0.00 0.00 0.00 93 1010.2
20260507084313 39 133 3.0 4.0 0.00 0.00 0.00 93 1010.4
20260507083810 39 130 3.0 4.0 0.00 0.00 0.00 93 1010.3
20260507083307 39 137 3.0 3.0 0.00 0.00 0.00 94 1010.4
20260507082803 39 138 3.0 3.0 0.00 0.00 0.00 94 1010.4
20260507082259 39 141 3.0 3.0 0.00 0.00 0.00 94 1010.4
20260507081756 39 133 3.0 3.0 0.00 0.00 0.00 95 1010.4
20260507081251 40 138 2.0 3.0 0.00 0.00 0.00 95 1010.5
20260507080748 40 137 3.0 3.0 0.00 0.00 0.00 96 1010.5
20260507080245 40 147 2.0 3.0 0.00 0.00 0.00 96 1010.5
20260507075740 40 120 3.0 3.0 0.00 0.00 0.00 96 1010.6
20260507075236 40 133 3.0 3.0 0.00 0.00 0.00 96 1010.5
20260507074732 40 151 3.0 3.0 0.00 0.00 0.00 97 1010.4
20260507074231 39 145 3.0 3.0 0.00 0.00 0.00 97 1010.5
20260507073727 39 139 2.0 4.0 0.00 0.00 0.00 97 1010.5
20260507073224 39 127 2.0 3.0 0.00 0.00 0.00 96 1010.3
20260507072722 40 133 3.0 3.0 0.00 0.00 0.00 97 1010.4
20260507072219 39 130 3.0 3.0 0.00 0.00 0.00 97 1010.4
20260507071717 39 130 2.0 3.0 0.00 0.00 0.00 97 1010.5
20260507071213 39 125 3.0 3.0 0.00 0.00 0.00 97 1010.4
20260507070710 39 143 2.0 3.0 0.00 0.00 0.00 97 1010.4
20260507070207 39 130 3.0 4.0 0.00 0.00 0.00 97 1010.4
20260507065703 39 138 2.0 3.0 0.00 0.00 0.00 97 1010.5
20260507065200 39 142 3.0 3.0 0.00 0.00 0.00 96 1010.4
20260507064657 39 129 3.0 3.0 0.00 0.00 0.00 96 1010.5
20260507064156 39 127 2.0 3.0 0.00 0.00 0.00 96 1010.3
20260507063653 39 135 2.0 3.0 0.00 0.00 0.00 96 1010.4
20260507063150 39 132 3.0 3.0 0.00 0.00 0.00 96 1010.5
20260507062646 39 137 3.0 3.0 0.00 0.00 0.00 96 1010.7
20260507062144 39 130 3.0 3.0 0.00 0.00 0.00 96 1010.6
20260507061642 39 150 2.0 3.0 0.00 0.00 0.00 96 1010.5
20260507061139 39 129 3.0 4.0 0.00 0.00 0.00 96 1010.6
20260507060638 39 142 3.0 4.0 0.00 0.00 0.00 96 1010.6
20260507060134 39 143 3.0 3.0 0.00 0.00 0.00 96 1010.7
20260507055629 39 134 3.0 3.0 0.00 0.00 0.00 96 1010.8
20260507055125 39 136 3.0 3.0 0.00 0.00 0.00 96 1010.8
20260507054621 39 128 3.0 4.0 0.00 0.00 0.00 95 1010.9
20260507054119 39 133 2.0 3.0 0.00 0.00 0.00 95 1011.0
20260507053617 39 132 2.0 3.0 0.00 0.00 0.00 95 1011.0
20260507053115 39 132 3.0 3.0 0.00 0.00 0.00 95 1011.3
20260507052613 39 130 3.0 4.0 0.00 0.00 0.00 95 1011.1
20260507052109 39 130 3.0 3.0 0.00 0.00 0.00 95 1011.1
20260507051606 39 137 3.0 3.0 0.00 0.00 0.00 95 1011.1
20260507051103 39 141 3.0 4.0 0.00 0.00 0.00 94 1011.1
20260507050600 39 121 3.0 3.0 0.00 0.00 0.00 94 1011.1
20260507050056 39 125 3.0 3.0 0.00 0.00 0.00 94 1011.0
20260507045553 39 126 3.0 3.0 0.00 0.00 0.00 94 1011.0
20260507045050 39 127 3.0 3.0 0.00 0.00 0.00 94 1011.2
20260507044547 39 127 3.0 3.0 0.00 0.00 0.00 94 1011.0
20260507044044 39 127 2.0 3.0 0.00 0.00 0.00 93 1011.1
20260507043539 39 136 3.0 4.0 0.00 0.00 0.00 93 1010.8
20260507043037 40 127 3.0 3.0 0.00 0.00 0.00 93 1010.9
20260507042533 40 127 2.0 3.0 0.00 0.00 0.00 93 1011.1
20260507042028 40 133 2.0 3.0 0.00 0.00 0.00 93 1011.0
20260507041526 40 130 3.0 4.0 0.00 0.00 0.00 92 1011.2
20260507041023 40 133 3.0 3.0 0.00 0.00 0.00 92 1011.0
20260507040519 40 130 3.0 3.0 0.00 0.00 0.00 92 1011.2
20260507040015 41 126 3.0 3.0 0.00 0.00 0.00 92 1011.0
20260507035511 41 133 3.0 4.0 0.00 0.00 0.00 92 1011.1
20260507035008 41 135 3.0 4.0 0.00 0.00 0.00 92 1011.1
20260507034505 41 136 2.0 4.0 0.00 0.00 0.00 91 1011.2
20260507034003 41 132 3.0 3.0 0.00 0.00 0.00 91 1011.1
20260507033500 41 130 2.0 4.0 0.00 0.00 0.00 89 1011.3
20260507032957 41 128 3.0 4.0 0.00 0.00 0.00 89 1011.2
20260507032454 41 129 3.0 3.0 0.00 0.00 0.00 89 1011.3
20260507031950 42 130 3.0 3.0 0.00 0.00 0.00 89 1011.3
20260507031447 42 132 3.0 3.0 0.00 0.00 0.00 88 1011.5
20260507030944 42 129 3.0 3.0 0.00 0.00 0.00 86 1011.4
20260507030441 42 132 3.0 3.0 0.00 0.00 0.00 86 1011.6